Regional Weather Roundup
Issued by NWS

Home | Current Version | Previous Version | Graphics & Text | Print | Product List | Glossary On
Versions: 1 2 3 4 5 6 7 8 9 10 11 12 13 14 15 16 17 18 19 20 21 22 23 24 25 26 27 28 29 30 31 32 33 34 35 36 37 38 39 40 41 42 43 44 45 46 47 48 49 50
000
ASUS43 KBIS 231502
RWRND

NORTH DAKOTA REGIONAL WEATHER ROUNDUP
NATIONAL WEATHER SERVICE BISMARCK ND
1000 AM CDT THU MAR 23 2017

NOTE: "FAIR" INDICATES FEW OR NO CLOUDS BELOW 12,000 FEET WITH NO
SIGNIFICANT WEATHER AND/OR OBSTRUCTIONS TO VISIBILITY.


NDZ001>003-009>011-017-231600-
NORTHWEST NORTH DAKOTA

CITY           SKY/WX    TMP DP  RH WIND       PRES   REMARKS
WILLISTON      FAIR      37  33  85 CALM      29.77R
MINOT          FAIR      38  31  76 W5        29.73S
MINOT AFB      CLOUDY    35  32  87 CALM      29.73R
$$

NDZ018>021-031>035-040>046-231600-
SOUTHWEST NORTH DAKOTA

CITY           SKY/WX    TMP DP  RH WIND       PRES   REMARKS
BISMARCK       RAIN      35  33  92 SE6       29.76R FOG
DICKINSON      CLOUDY    39  34  82 W8        29.72R
GARRISON         N/A     34  30  85 CALM      29.73S
HETTINGER ARPT CLOUDY    41  38  89 NE3       29.73R
$$

NDZ004>008-012>016-024-026-027-054-231600-
NORTHEAST NORTH DAKOTA

CITY           SKY/WX    TMP DP  RH WIND       PRES   REMARKS
GRAND FORKS    CLOUDY    36  28  73 S15       29.84F
GRND FRKS AFB  CLOUDY    35  27  73 S12       29.84F
DEVILS LAKE    FAIR      32  28  85 SE5       29.76F
$$

NDZ022-023-025-028>030-036>039-047>053-231600-
SOUTHEAST NORTH DAKOTA

CITY           SKY/WX    TMP DP  RH WIND       PRES   REMARKS
FARGO          LGT RAIN  38  28  67 S28G36    29.88S
JAMESTOWN      LGT RAIN  35  32  88 S10       29.78F
$$





USA.gov is the U.S. government's official web portal to all federal, state and local government web resources and services.